period_start,C,m1,H,J0,J1,J2,J3,J4,J5,JA,JB,JC,JD,JJ,JK,JN,#
2013-09-25 00:00:22,-0.02,0.33,0.00,27.62,32.27,34.45,5.88,29.96,1004.41,2028.89,3340.95,3217.27,3495.03,349.75,314.93,5.22,0000 0000 0000 0000 000000
2013-09-25 00:01:22,0.00,0.33,0.00,27.62,32.27,34.42,5.83,29.88,1004.41,2028.82,3340.93,3217.27,3495.01,350.08,315.23,5.23,0000 0000 0000 0000 000000
2013-09-25 00:02:22,-0.03,0.33,0.00,27.62,32.27,34.41,5.83,30.04,1004.41,2028.71,3340.78,3217.16,3495.00,349.93,315.09,5.23,0000 0000 0000 0000 000000
2013-09-25 00:03:23,-0.02,0.33,0.00,27.62,32.27,34.42,5.92,29.88,1004.41,2028.61,3340.67,3217.07,3495.01,350.00,315.16,5.24,0000 0000 0000 0000 000000
2013-09-25 00:04:23,-0.07,0.33,0.00,27.64,32.27,34.44,5.89,29.75,1004.41,2028.52,3340.61,3217.04,3495.00,350.58,315.72,5.24,0000 0000 0000 0000 000000
2013-09-25 00:05:23,-0.07,0.32,0.00,27.67,32.27,34.44,5.66,29.88,1004.42,2028.38,3340.52,3217.03,3495.00,349.49,314.45,5.25,0000 0000 0000 0000 000000
2013-09-25 00:06:24,-0.03,0.32,0.00,27.66,32.27,34.43,5.79,30.00,1004.41,2028.42,3340.44,3217.04,3495.00,350.06,315.18,5.26,0000 0000 0000 0000 000000
2013-09-25 00:07:24,0.01,0.32,0.00,27.65,32.27,34.44,5.65,29.88,1004.41,2028.45,3340.51,3217.05,3495.00,348.95,314.47,5.26,0000 0000 0000 0000 000000
2013-09-25 00:08:24,0.05,0.32,0.00,27.67,32.27,34.45,5.81,29.92,1004.42,2028.64,3340.74,3217.03,3495.00,349.78,314.76,5.27,0000 0000 0000 0000 000000
2013-09-25 00:09:24,0.06,0.32,0.00,27.69,32.27,34.45,5.92,29.88,1004.42,2028.64,3340.81,3217.04,3495.00,350.83,315.96,5.27,0000 0000 0000 0000 000000
2013-09-25 00:10:25,0.00,0.32,0.00,27.69,32.27,34.45,5.85,29.79,1004.41,2028.67,3340.91,3217.08,3495.00,350.24,315.26,5.28,0000 0000 0000 0000 000000
2013-09-25 00:11:25,-0.03,0.32,0.00,27.70,32.27,34.45,5.73,29.92,1004.41,2028.57,3340.93,3217.11,3495.00,349.47,314.28,5.28,0000 0000 0000 0000 000000
2013-09-25 00:12:25,-0.10,0.32,0.00,27.70,32.27,34.45,5.79,29.96,1004.41,2028.45,3340.94,3217.13,3495.00,349.73,314.83,5.29,0000 0000 0000 0000 000000
2013-09-25 00:13:25,-0.06,0.32,0.00,27.70,32.27,34.46,5.75,29.92,1004.41,2028.39,3340.89,3217.06,3495.00,349.37,314.51,5.30,0000 0000 0000 0000 000000
2013-09-25 00:14:26,-0.04,0.32,0.00,27.70,32.27,34.46,5.70,29.79,1004.41,2028.24,3340.89,3217.03,3495.00,349.46,314.71,5.30,0000 0000 0000 0000 000000
2013-09-25 00:15:26,-0.07,0.32,0.00,27.71,32.27,34.44,5.87,30.00,1004.41,2028.26,3340.93,3217.04,3495.00,349.96,314.93,5.31,0000 0000 0000 0000 000000
2013-09-25 00:16:26,-0.01,0.32,0.00,27.72,32.28,34.43,5.88,30.00,1004.41,2028.21,3340.87,3217.04,3495.00,350.37,315.11,5.31,0000 0000 0000 0000 000000
2013-09-25 00:17:26,-0.02,0.32,0.00,27.72,32.28,34.44,5.85,30.00,1004.41,2028.13,3340.72,3217.02,3495.00,350.43,315.44,5.32,0000 0000 0000 0000 000000
2013-09-25 00:18:27,-0.01,0.32,0.00,27.71,32.28,34.43,5.70,29.75,1004.41,2028.21,3340.60,3217.02,3495.00,349.42,314.54,5.33,0000 0000 0000 0000 000000
2013-09-25 00:19:27,0.05,0.32,0.00,27.72,32.28,34.44,5.85,30.00,1004.41,2028.24,3340.48,3217.01,3495.00,349.60,314.69,5.33,0000 0000 0000 0000 000000
2013-09-25 00:20:27,0.04,0.32,0.00,27.73,32.28,34.45,5.87,30.21,1004.41,2028.29,3340.32,3217.01,3495.00,350.00,315.24,5.34,0000 0000 0000 0000 000000
2013-09-25 00:21:28,0.06,0.32,0.00,27.74,32.29,34.44,5.90,29.92,1004.41,2028.42,3340.20,3217.02,3495.00,350.62,315.56,5.34,0000 0000 0000 0000 000000
2013-09-25 00:22:28,0.14,0.33,0.00,27.73,32.29,34.45,5.66,29.83,1004.41,2028.58,3340.17,3217.04,3495.00,349.01,314.00,5.35,0000 0000 0000 0000 000000
2013-09-25 00:23:28,0.10,0.33,0.00,27.74,32.30,34.45,5.86,29.75,1004.41,2028.53,3340.16,3217.02,3495.00,350.36,315.48,5.35,0000 0000 0000 0000 000000
2013-09-25 00:24:29,-0.07,0.33,0.00,27.75,32.30,34.44,5.72,29.88,1004.41,2028.38,3340.14,3217.02,3495.00,349.29,314.19,5.36,0000 0000 0000 0000 000000
2013-09-25 00:25:29,-0.09,0.32,0.00,27.76,32.30,34.44,5.88,30.17,1004.42,2028.35,3340.19,3217.02,3495.00,349.56,314.62,5.37,0000 0000 0000 0000 000000
2013-09-25 00:26:29,-0.05,0.32,0.00,27.75,32.30,34.45,5.86,29.88,1004.41,2028.23,3340.17,3217.01,3495.00,350.52,315.30,5.37,0000 0000 0000 0000 000000
2013-09-25 00:27:29,-0.06,0.32,0.00,27.74,32.30,34.48,5.87,29.67,1004.41,2028.25,3340.16,3217.00,3495.00,350.63,315.60,5.38,0000 0000 0000 0000 000000
2013-09-25 00:28:29,-0.01,0.32,0.00,27.74,32.30,34.46,5.91,29.96,1004.41,2028.23,3340.20,3217.00,3495.00,350.23,315.24,5.38,0000 0000 0000 0000 000000
2013-09-25 00:29:30,0.01,0.32,0.00,27.72,32.30,34.46,5.77,29.83,1004.41,2028.22,3340.15,3217.00,3494.99,349.66,314.74,5.39,0000 0000 0000 0000 000000
2013-09-25 00:30:30,0.04,0.32,0.00,27.72,32.30,34.47,5.68,29.83,1004.41,2028.29,3340.12,3217.00,3494.98,349.30,314.55,5.40,0000 0000 0000 0000 000000
2013-09-25 00:31:30,0.01,0.32,0.00,27.72,32.30,34.47,5.92,29.83,1004.41,2028.18,3340.09,3217.00,3494.99,350.21,315.23,5.40,0000 0000 0000 0000 000000
2013-09-25 00:32:30,-0.07,0.32,0.00,27.72,32.30,34.46,5.80,29.88,1004.42,2028.15,3340.12,3217.00,3494.99,350.27,315.21,5.41,0000 0000 0000 0000 000000
2013-09-25 00:33:31,-0.04,0.32,0.00,27.72,32.30,34.48,5.76,30.17,1004.41,2028.10,3340.07,3217.00,3494.98,349.21,314.20,5.41,0000 0000 0000 0000 000000
2013-09-25 00:34:31,-0.02,0.32,0.00,27.72,32.30,34.47,5.88,29.88,1004.41,2028.08,3340.04,3217.00,3494.98,350.13,315.36,5.42,0000 0000 0000 0000 000000
2013-09-25 00:35:31,0.00,0.32,0.00,27.72,32.30,34.48,5.73,29.88,1004.41,2028.09,3340.04,3217.00,3494.98,349.40,314.51,5.42,0000 0000 0000 0000 000000
2013-09-25 00:36:31,0.00,0.32,0.00,27.73,32.30,34.51,5.84,29.67,1004.41,2028.10,3340.02,3217.00,3494.97,349.85,314.90,5.43,0000 0000 0000 0000 000000
2013-09-25 00:37:32,-0.00,0.32,0.00,27.74,32.31,34.49,5.81,29.79,1004.41,2028.07,3340.02,3217.00,3494.96,350.11,315.13,5.44,0000 0000 0000 0000 000000
2013-09-25 00:38:32,-0.01,0.32,0.00,27.73,32.31,34.48,5.84,29.79,1004.41,2028.08,3340.01,3217.00,3494.96,350.16,315.19,5.44,0000 0000 0000 0000 000000
2013-09-25 00:39:32,0.01,0.32,0.00,27.72,32.32,34.48,5.93,29.83,1004.41,2028.07,3340.02,3217.00,3494.97,350.83,315.80,5.45,0000 0000 0000 0000 000000
2013-09-25 00:40:32,-0.03,0.32,0.00,27.72,32.32,34.50,6.00,30.13,1004.41,2028.06,3340.01,3217.00,3494.98,350.12,315.16,5.45,0000 0000 0000 0000 000000
2013-09-25 00:41:33,0.00,0.32,0.00,27.75,32.32,34.50,5.88,29.96,1004.41,2028.09,3340.01,3217.00,3494.97,350.93,315.86,5.46,0000 0000 0000 0000 000000
2013-09-25 00:42:33,0.01,0.32,0.00,27.73,32.32,34.48,5.83,30.21,1004.41,2028.08,3340.00,3217.00,3494.96,350.16,315.19,5.47,0000 0000 0000 0000 000000
2013-09-25 00:43:33,0.00,0.32,0.00,27.72,32.32,34.50,5.79,30.13,1004.41,2028.04,3340.00,3216.99,3494.91,349.51,314.50,5.47,0000 0000 0000 0000 000000
2013-09-25 00:44:33,-0.01,0.32,0.00,27.71,32.32,34.50,5.82,30.21,1004.41,2028.02,3340.00,3216.97,3494.79,349.47,314.58,5.48,0000 0000 0000 0000 000000
2013-09-25 00:45:34,0.01,0.32,0.00,27.72,32.32,34.54,5.79,29.96,1004.41,2028.04,3340.00,3216.97,3494.82,349.79,314.87,5.48,0000 0000 0000 0000 000000
2013-09-25 00:46:34,0.01,0.32,0.00,27.71,32.32,34.50,5.80,29.83,1004.41,2028.04,3340.00,3216.99,3494.83,349.96,315.20,5.49,0000 0000 0000 0000 000000
2013-09-25 00:47:34,0.00,0.32,0.00,27.71,32.32,34.51,5.73,29.83,1004.40,2028.07,3340.00,3216.99,3494.89,350.01,314.88,5.50,0000 0000 0000 0000 000000
2013-09-25 00:48:34,0.00,0.32,0.00,27.70,32.32,34.51,5.96,29.75,1004.41,2028.05,3340.00,3216.99,3494.92,350.11,315.17,5.50,0000 0000 0000 0000 000000
2013-09-25 00:49:34,-0.01,0.32,0.00,27.70,32.32,34.53,5.90,29.79,1004.40,2028.07,3340.00,3216.99,3494.90,350.33,315.37,5.51,0000 0000 0000 0000 000000
2013-09-25 00:50:35,0.02,0.32,0.00,27.69,32.32,34.52,5.91,29.96,1004.41,2028.04,3340.00,3216.98,3494.69,349.91,315.22,5.51,0000 0000 0000 0000 000000
2013-09-25 00:51:35,0.01,0.32,0.00,27.71,32.32,34.51,5.81,29.75,1004.41,2028.02,3340.00,3216.96,3494.52,349.35,314.67,5.52,0000 0000 0000 0000 000000
2013-09-25 00:52:35,0.00,0.32,0.00,27.70,32.32,34.52,5.66,30.04,1004.41,2028.00,3340.00,3216.93,3494.36,348.30,313.54,5.52,0000 0000 0000 0000 000000
2013-09-25 00:53:36,0.01,0.32,0.00,27.72,32.33,34.54,5.82,29.79,1004.40,2028.00,3340.00,3216.91,3494.24,350.64,315.21,5.53,0000 0000 0000 0000 000000
2013-09-25 00:54:36,0.01,0.32,0.00,27.73,32.33,34.55,5.75,29.75,1004.41,2028.01,3340.00,3216.93,3494.19,349.57,314.64,5.54,0000 0000 0000 0000 000000
2013-09-25 00:55:36,0.01,0.32,0.00,27.75,32.34,34.54,5.93,29.88,1004.41,2028.01,3339.97,3216.94,3494.18,350.28,314.84,5.54,0000 0000 0000 0000 000000
2013-09-25 00:56:36,0.00,0.32,0.00,27.73,32.34,34.54,5.85,29.79,1004.41,2028.00,3339.98,3216.95,3494.18,350.55,315.52,5.55,0000 0000 0000 0000 000000
2013-09-25 00:57:36,0.00,0.32,0.00,27.71,32.35,34.51,5.78,29.75,1004.41,2028.01,3339.99,3216.94,3494.16,350.09,315.37,5.55,0000 0000 0000 0000 000000
2013-09-25 00:58:37,0.00,0.32,0.00,27.71,32.35,34.52,5.87,29.75,1004.40,2028.00,3339.99,3216.93,3494.16,350.30,315.33,5.56,0000 0000 0000 0000 000000
2013-09-25 00:59:37,0.00,0.32,0.00,27.71,32.35,34.54,5.77,29.96,1004.41,2028.01,3339.99,3216.93,3494.17,349.04,314.20,5.57,0000 0000 0000 0000 000000
2013-09-25 01:00:37,0.01,0.32,0.00,27.71,32.35,34.55,5.83,29.96,1004.41,2028.01,3339.98,3216.88,3494.12,349.15,314.31,5.57,0000 0000 0000 0000 000000
2013-09-25 01:01:37,0.01,0.32,0.00,27.70,32.35,34.53,5.89,30.08,1004.40,2028.00,3339.99,3216.87,3494.20,350.13,315.19,5.58,0000 0000 0000 0000 000000
2013-09-25 01:02:38,0.00,0.32,0.00,27.71,32.35,34.54,5.73,29.96,1004.41,2028.01,3339.99,3216.88,3494.16,350.07,314.95,5.58,0000 0000 0000 0000 000000
2013-09-25 01:03:38,0.00,0.32,0.00,27.73,32.35,34.58,5.86,30.00,1004.41,2028.01,3339.99,3216.93,3494.13,350.50,315.50,5.59,0000 0000 0000 0000 000000
2013-09-25 01:04:38,0.00,0.32,0.00,27.75,32.35,34.57,5.96,29.96,1004.41,2028.01,3339.99,3216.95,3494.19,350.88,315.81,5.59,0000 0000 0000 0000 000000
2013-09-25 01:05:38,0.00,0.32,0.00,27.78,32.35,34.55,5.86,30.13,1004.41,2028.05,3339.99,3216.94,3494.16,350.89,315.79,5.60,0000 0000 0000 0000 000000
2013-09-25 01:06:39,0.01,0.32,0.00,27.80,32.35,34.56,5.90,29.92,1004.40,2028.03,3339.98,3216.91,3494.15,350.30,315.24,5.61,0000 0000 0000 0000 000000
2013-09-25 01:07:39,0.02,0.32,0.00,27.81,32.35,34.53,5.82,29.83,1004.41,2028.01,3339.95,3216.81,3494.10,349.97,314.68,5.61,0000 0000 0000 0000 000000
2013-09-25 01:08:39,0.01,0.32,0.00,27.78,32.35,34.54,5.83,29.92,1004.41,2028.00,3339.96,3216.66,3494.05,349.54,314.72,5.62,0000 0000 0000 0000 000000
2013-09-25 01:09:39,0.01,0.32,0.00,27.77,32.35,34.52,5.96,29.83,1004.41,2028.00,3339.95,3216.64,3494.02,350.75,315.68,5.62,0000 0000 0000 0000 000000
2013-09-25 01:10:40,0.01,0.32,0.00,27.76,32.35,34.50,5.69,29.88,1004.41,2028.00,3339.96,3216.73,3494.05,350.22,315.02,5.63,0000 0000 0000 0000 000000
2013-09-25 01:11:40,-0.01,0.32,0.00,27.76,32.35,34.55,5.84,29.63,1004.40,2028.00,3339.97,3216.63,3494.04,350.21,314.82,5.64,0000 0000 0000 0000 000000
2013-09-25 01:12:40,0.00,0.32,0.00,27.75,32.35,34.56,5.81,30.00,1004.41,2028.00,3339.99,3216.65,3494.03,348.31,313.50,5.64,0000 0000 0000 0000 000000
2013-09-25 01:13:40,0.00,0.32,0.00,27.74,32.36,34.55,5.71,29.79,1004.39,2028.00,3339.99,3216.66,3494.03,349.95,314.93,5.65,0000 0000 0000 0000 000000
2013-09-25 01:14:41,-0.01,0.32,0.00,27.72,32.36,34.53,5.88,29.92,1004.39,2028.00,3339.96,3216.58,3494.02,350.20,315.05,5.65,0000 0000 0000 0000 000000
2013-09-25 01:15:41,0.03,0.32,0.00,27.74,32.37,34.55,5.91,30.00,1004.40,2028.00,3339.96,3216.45,3494.02,349.93,314.65,5.66,0000 0000 0000 0000 000000
2013-09-25 01:16:41,0.04,0.32,0.00,27.72,32.37,34.55,5.74,29.88,1004.37,2028.00,3339.92,3216.36,3494.00,350.15,315.07,5.67,0000 0000 0000 0000 000000
2013-09-25 01:17:41,0.01,0.32,0.00,27.73,32.37,34.58,5.70,30.04,1004.39,2028.00,3339.87,3216.33,3494.00,349.65,314.71,5.67,0000 0000 0000 0000 000000
2013-09-25 01:18:42,0.01,0.32,0.00,27.73,32.37,34.58,5.68,29.83,1004.36,2028.00,3339.86,3216.28,3494.00,349.49,314.55,5.68,0000 0000 0000 0000 000000
2013-09-25 01:19:42,0.01,0.32,0.00,27.72,32.37,34.55,5.77,29.83,1004.30,2028.00,3339.93,3216.35,3494.01,349.38,314.46,5.68,0000 0000 0000 0000 000000
2013-09-25 01:20:42,-0.02,0.32,0.00,27.72,32.37,34.57,5.79,29.83,1004.32,2028.00,3339.89,3216.30,3494.01,349.45,314.53,5.69,0000 0000 0000 0000 000000
2013-09-25 01:21:42,0.03,0.32,0.00,27.73,32.37,34.59,5.88,29.96,1004.33,2028.00,3339.75,3216.15,3494.00,350.86,315.79,5.69,0000 0000 0000 0000 000000
2013-09-25 01:22:43,0.03,0.32,0.00,27.72,32.37,34.56,5.89,29.79,1004.33,2028.00,3339.67,3216.11,3494.00,350.53,315.50,5.70,0000 0000 0000 0000 000000
2013-09-25 01:23:43,0.02,0.32,0.00,27.72,32.37,34.57,5.82,30.00,1004.27,2028.00,3339.57,3216.09,3494.00,349.80,314.82,5.71,0000 0000 0000 0000 000000
2013-09-25 01:24:43,0.00,0.32,0.00,27.72,32.37,34.57,5.84,29.83,1004.28,2028.00,3339.61,3216.08,3494.00,350.02,315.28,5.71,0000 0000 0000 0000 000000
2013-09-25 01:25:43,0.00,0.32,0.00,27.73,32.37,34.58,5.83,29.92,1004.28,2028.00,3339.64,3216.07,3494.00,349.59,314.34,5.72,0000 0000 0000 0000 000000
2013-09-25 01:26:43,0.01,0.32,0.00,27.75,32.37,34.59,5.83,29.79,1004.26,2028.00,3339.48,3216.03,3494.00,350.24,315.20,5.72,0000 0000 0000 0000 000000
2013-09-25 01:27:44,0.03,0.33,0.00,27.75,32.37,34.62,5.83,29.71,1004.24,2028.00,3339.40,3216.03,3494.00,349.60,314.96,5.73,0000 0000 0000 0000 000000
2013-09-25 01:28:44,0.01,0.33,0.00,27.75,32.37,34.61,5.80,29.92,1004.16,2028.00,3339.38,3216.03,3494.00,349.67,314.64,5.74,0000 0000 0000 0000 000000
2013-09-25 01:29:44,0.01,0.33,0.00,27.75,32.38,34.59,5.87,29.88,1004.14,2028.00,3339.17,3216.01,3494.00,350.19,315.12,5.74,0000 0000 0000 0000 000000
2013-09-25 01:30:44,0.02,0.33,0.00,27.75,32.38,34.59,5.77,29.92,1004.12,2028.00,3339.12,3216.00,3494.00,348.63,313.71,5.75,0000 0000 0000 0000 000000
2013-09-25 01:31:45,0.00,0.33,0.00,27.75,32.38,34.56,5.72,29.88,1004.08,2028.00,3339.09,3216.00,3494.00,349.36,314.13,5.75,0000 0000 0000 0000 000000
2013-09-25 01:32:45,0.00,0.33,0.00,27.74,32.38,34.57,5.91,29.79,1004.04,2028.00,3339.05,3216.00,3494.00,350.43,315.30,5.76,0000 0000 0000 0000 000000
2013-09-25 01:33:45,0.00,0.33,0.00,27.74,32.39,34.56,5.84,29.92,1003.98,2028.00,3339.02,3216.01,3493.99,349.66,314.60,5.76,0000 0000 0000 0000 000000
2013-09-25 01:34:45,0.00,0.33,0.00,27.74,32.40,34.59,5.97,29.96,1003.98,2028.00,3339.00,3216.00,3493.99,351.09,315.79,5.77,0000 0000 0000 0000 000000
2013-09-25 01:35:45,0.00,0.33,0.00,27.75,32.40,34.56,5.92,30.00,1003.98,2028.00,3339.02,3216.00,3493.99,349.88,314.88,5.78,0000 0000 0000 0000 000000
2013-09-25 01:36:46,0.00,0.33,0.00,27.75,32.40,34.56,5.73,29.88,1004.02,2028.00,3339.01,3216.00,3493.97,349.45,315.04,5.78,0000 0000 0000 0000 000000
2013-09-25 01:37:46,0.00,0.33,0.00,27.74,32.40,34.58,5.92,29.79,1004.00,2028.00,3339.01,3216.00,3493.96,351.29,315.71,5.79,0000 0000 0000 0000 000000
2013-09-25 01:38:46,0.00,0.33,0.00,27.74,32.40,34.57,5.73,29.92,1004.01,2028.00,3339.00,3216.00,3493.96,349.48,314.66,5.79,0000 0000 0000 0000 000000
2013-09-25 01:39:46,0.00,0.33,0.00,27.75,32.40,34.58,5.87,29.92,1003.95,2028.00,3339.00,3216.00,3493.94,350.38,315.12,5.80,0000 0000 0000 0000 000000
2013-09-25 01:40:46,0.00,0.33,0.00,27.76,32.40,34.58,5.82,29.88,1003.98,2028.00,3339.00,3216.00,3493.92,349.52,314.44,5.81,0000 0000 0000 0000 000000
2013-09-25 01:41:47,0.00,0.33,0.00,27.77,32.40,34.59,5.84,29.92,1003.97,2028.00,3339.00,3216.00,3493.83,350.82,315.61,5.81,0000 0000 0000 0000 000000
2013-09-25 01:42:47,0.01,0.33,0.00,27.77,32.40,34.59,5.83,30.17,1003.99,2028.00,3339.00,3215.98,3493.74,349.72,314.63,5.82,0000 0000 0000 0000 000000
2013-09-25 01:43:47,0.02,0.33,0.00,27.77,32.40,34.58,5.85,30.33,1003.99,2028.00,3339.00,3215.94,3493.57,348.76,313.76,5.82,0000 0000 0000 0000 000000
2013-09-25 01:44:47,0.02,0.33,0.00,27.77,32.40,34.58,5.91,30.08,1003.97,2028.00,3339.00,3215.97,3493.55,350.59,315.45,5.83,0000 0000 0000 0000 000000
2013-09-25 01:45:48,-0.01,0.33,0.00,27.80,32.40,34.58,5.90,29.96,1003.97,2028.00,3339.00,3215.99,3493.56,349.93,315.20,5.84,0000 0000 0000 0000 000000
2013-09-25 01:46:48,-0.00,0.33,0.00,27.79,32.40,34.58,5.83,30.08,1003.95,2028.00,3339.00,3215.99,3493.50,349.32,313.94,5.84,0000 0000 0000 0000 000000
2013-09-25 01:47:48,0.01,0.33,0.00,27.79,32.40,34.58,5.88,29.96,1003.94,2027.99,3338.99,3215.99,3493.34,350.36,315.35,5.85,0000 0000 0000 0000 000000
2013-09-25 01:48:48,0.00,0.33,0.00,27.78,32.40,34.57,5.82,29.83,1003.95,2027.99,3338.98,3215.94,3493.24,349.79,315.08,5.85,0000 0000 0000 0000 000000
2013-09-25 01:49:49,0.02,0.33,0.00,27.78,32.41,34.57,5.87,29.92,1003.95,2027.99,3338.97,3215.93,3493.18,350.27,314.86,5.86,0000 0000 0000 0000 000000
2013-09-25 01:50:49,0.00,0.33,0.00,27.79,32.41,34.58,5.91,29.83,1003.93,2027.99,3338.95,3215.92,3493.15,350.88,315.61,5.86,0000 0000 0000 0000 000000
2013-09-25 01:51:49,0.01,0.33,0.00,27.79,32.42,34.58,5.76,29.83,1003.95,2027.99,3338.95,3215.93,3493.11,349.84,314.78,5.87,0000 0000 0000 0000 000000
2013-09-25 01:52:49,0.00,0.33,0.00,27.80,32.42,34.58,5.80,29.79,1003.93,2027.97,3338.83,3215.85,3493.05,349.23,314.23,5.88,0000 0000 0000 0000 000000
2013-09-25 01:53:50,0.04,0.33,0.00,27.78,32.42,34.58,5.88,29.83,1003.93,2027.99,3338.65,3215.77,3493.02,349.57,314.45,5.88,0000 0000 0000 0000 000000
2013-09-25 01:54:50,0.02,0.33,0.00,27.79,32.42,34.59,5.93,29.92,1003.93,2027.99,3338.59,3215.74,3493.01,350.80,315.09,5.89,0000 0000 0000 0000 000000
2013-09-25 01:55:50,0.03,0.33,0.00,27.79,32.42,34.65,5.89,29.88,1003.95,2027.99,3338.36,3215.61,3493.00,349.71,314.76,5.89,0000 0000 0000 0000 000000
2013-09-25 01:56:50,0.06,0.33,0.00,27.80,32.42,34.62,5.90,29.88,1003.95,2027.99,3338.17,3215.32,3493.00,350.24,315.04,5.90,0000 0000 0000 0000 000000
2013-09-25 01:57:50,0.08,0.33,0.00,27.80,32.42,34.59,5.79,29.92,1003.96,2027.99,3338.12,3215.23,3493.00,350.16,314.98,5.91,0000 0000 0000 0000 000000
2013-09-25 01:58:51,0.01,0.33,0.00,27.79,32.42,34.59,5.85,29.83,1003.93,2027.99,3338.07,3215.22,3493.00,349.86,314.71,5.91,0000 0000 0000 0000 000000
2013-09-25 01:59:51,0.01,0.33,0.00,27.79,32.42,34.59,5.96,29.88,1003.94,2027.99,3338.05,3215.21,3493.00,349.41,314.07,5.92,0000 0000 0000 0000 000000
2013-09-25 02:00:51,0.00,0.33,0.00,27.80,32.42,34.59,5.83,29.83,1003.95,2027.98,3338.03,3215.12,3493.00,350.63,315.56,5.92,0000 0000 0000 0000 000000
2013-09-25 02:01:51,0.01,0.33,0.00,27.78,32.42,34.58,5.88,29.79,1003.94,2027.98,3338.01,3215.04,3493.00,350.66,315.44,5.93,0000 0000 0000 0000 000000
2013-09-25 02:02:52,0.01,0.33,0.00,27.78,32.42,34.61,5.71,29.88,1003.93,2027.98,3338.00,3215.01,3493.00,349.64,314.52,5.93,0000 0000 0000 0000 000000
2013-09-25 02:03:52,0.01,0.33,0.00,27.78,32.42,34.61,5.83,29.79,1003.93,2027.99,3337.99,3215.00,3492.99,350.41,315.21,5.94,0000 0000 0000 0000 000000
2013-09-25 02:04:52,0.00,0.33,0.00,27.79,32.43,34.59,5.89,29.79,1003.93,2027.99,3337.97,3215.00,3492.94,350.22,315.04,5.95,0000 0000 0000 0000 000000
2013-09-25 02:05:52,0.02,0.33,0.00,27.78,32.43,34.61,5.88,29.79,1003.93,2027.99,3337.97,3215.00,3492.92,350.27,315.09,5.95,0000 0000 0000 0000 000000
2013-09-25 02:06:53,0.00,0.33,0.00,27.78,32.43,34.59,5.75,29.92,1003.94,2027.98,3337.95,3215.00,3492.93,349.65,314.53,5.96,0000 0000 0000 0000 000000
2013-09-25 02:07:53,-0.01,0.33,0.00,27.80,32.44,34.61,5.95,29.92,1003.93,2027.98,3337.95,3215.00,3492.91,350.28,315.10,5.96,0000 0000 0000 0000 000000
2013-09-25 02:08:53,0.00,0.33,0.00,27.80,32.45,34.62,5.79,30.04,1003.93,2027.97,3337.71,3215.00,3492.76,349.10,314.21,5.97,0000 0000 0000 0000 000000
2013-09-25 02:09:53,0.07,0.33,0.00,27.81,32.45,34.61,5.87,29.88,1003.94,2027.97,3337.51,3214.99,3492.55,350.51,315.26,5.98,0000 0000 0000 0000 000000
2013-09-25 02:10:54,0.04,0.33,0.00,27.81,32.45,34.60,5.73,29.79,1003.93,2027.96,3337.33,3214.98,3492.34,349.91,314.72,5.98,0000 0000 0000 0000 000000
2013-09-25 02:11:54,0.07,0.33,0.00,27.83,32.45,34.63,5.77,29.92,1003.93,2027.93,3337.15,3214.96,3492.18,349.31,314.17,5.99,0000 0000 0000 0000 000000
2013-09-25 02:12:54,0.00,0.33,0.00,27.83,32.45,34.63,5.69,29.83,1003.93,2027.94,3337.10,3214.98,3492.19,349.95,314.75,5.99,0000 0000 0000 0000 000000
2013-09-25 02:13:54,0.01,0.33,0.00,27.82,32.45,34.61,5.87,29.75,1003.93,2027.97,3337.06,3214.98,3492.13,349.51,314.10,6.00,0000 0000 0000 0000 000000
2013-09-25 02:14:55,0.03,0.33,0.00,27.83,32.45,34.61,5.87,29.92,1003.95,2027.95,3337.03,3214.96,3492.07,350.48,314.70,6.01,0000 0000 0000 0000 000000
2013-09-25 02:15:55,-0.02,0.33,0.00,27.82,32.45,34.60,5.73,29.88,1003.93,2027.94,3337.00,3214.91,3492.04,349.60,314.44,6.01,0000 0000 0000 0000 000000
2013-09-25 02:16:55,0.02,0.33,0.00,27.82,32.45,34.62,5.83,30.00,1003.92,2027.94,3337.00,3214.91,3492.06,350.61,315.35,6.02,0000 0000 0000 0000 000000
2013-09-25 02:17:55,-0.01,0.33,0.00,27.84,32.45,34.60,5.81,29.75,1003.93,2027.95,3337.00,3214.80,3492.04,350.97,315.43,6.02,0000 0000 0000 0000 000000
2013-09-25 02:18:55,0.05,0.33,0.00,27.85,32.45,34.62,5.92,29.83,1003.93,2027.95,3337.00,3214.76,3492.03,350.71,315.64,6.03,0000 0000 0000 0000 000000
2013-09-25 02:19:56,0.00,0.33,0.00,27.84,32.45,34.61,5.86,29.75,1003.93,2027.98,3337.00,3214.72,3492.01,350.25,314.88,6.03,0000 0000 0000 0000 000000
2013-09-25 02:20:56,0.03,0.33,0.00,27.83,32.46,34.62,5.81,29.83,1003.94,2027.98,3337.00,3214.48,3492.00,349.03,314.40,6.04,0000 0000 0000 0000 000000
2013-09-25 02:21:56,0.05,0.33,0.00,27.82,32.46,34.64,5.88,29.75,1003.93,2027.97,3337.00,3214.38,3492.00,349.84,314.65,6.05,0000 0000 0000 0000 000000
2013-09-25 02:22:56,0.01,0.33,0.00,27.83,32.47,34.63,5.91,29.92,1003.95,2027.96,3337.00,3214.36,3492.01,349.65,314.48,6.05,0000 0000 0000 0000 000000
2013-09-25 02:23:57,0.00,0.33,0.00,27.84,32.47,34.64,5.79,29.88,1003.94,2027.97,3337.00,3214.30,3492.00,350.54,315.27,6.06,0000 0000 0000 0000 000000
2013-09-25 02:24:57,0.00,0.33,0.00,27.84,32.47,34.63,5.62,29.79,1003.92,2027.91,3336.98,3214.17,3492.00,348.48,313.41,6.06,0000 0000 0000 0000 000000
2013-09-25 02:25:57,-0.02,0.33,0.00,27.86,32.47,34.65,5.92,29.83,1003.94,2027.94,3336.93,3214.09,3492.00,350.31,314.67,6.07,0000 0000 0000 0000 000000
2013-09-25 02:26:57,0.06,0.33,0.00,27.86,32.47,34.65,5.87,29.92,1003.94,2027.94,3336.86,3214.05,3492.00,350.10,314.85,6.08,0000 0000 0000 0000 000000
2013-09-25 02:27:58,0.00,0.33,0.00,27.87,32.47,34.63,5.77,29.79,1003.93,2027.93,3336.71,3214.07,3491.99,350.19,314.84,6.08,0000 0000 0000 0000 000000
2013-09-25 02:28:58,0.01,0.33,0.00,27.86,32.47,34.63,5.88,29.96,1003.92,2027.93,3336.54,3214.04,3491.99,349.78,314.53,6.09,0000 0000 0000 0000 000000
2013-09-25 02:29:58,0.04,0.33,0.00,27.87,32.47,34.63,5.93,29.83,1003.94,2027.94,3336.52,3214.02,3491.99,350.62,315.31,6.09,0000 0000 0000 0000 000000
2013-09-25 02:30:58,0.00,0.33,0.00,27.88,32.47,34.63,5.78,29.75,1003.93,2027.93,3336.40,3214.01,3491.98,349.39,313.84,6.10,0000 0000 0000 0000 000000
2013-09-25 02:31:59,0.00,0.33,0.00,27.88,32.47,34.62,5.69,29.92,1003.94,2027.93,3336.17,3214.00,3491.94,349.17,314.00,6.10,0000 0000 0000 0000 000000
2013-09-25 02:32:59,0.03,0.33,0.00,27.88,32.47,34.61,5.77,29.88,1003.93,2027.95,3336.10,3214.00,3491.93,350.22,314.94,6.11,0000 0000 0000 0000 000000
2013-09-25 02:33:59,0.03,0.33,0.00,27.88,32.47,34.63,5.85,29.83,1003.92,2027.94,3336.07,3214.00,3491.93,349.38,313.88,6.12,0000 0000 0000 0000 000000
2013-09-25 02:34:59,0.00,0.33,0.00,27.88,32.48,34.63,5.86,29.83,1003.95,2027.94,3336.03,3214.00,3491.78,350.53,315.02,6.12,0000 0000 0000 0000 000000
2013-09-25 02:36:00,0.02,0.33,0.00,27.88,32.48,34.64,5.81,29.71,1003.95,2027.90,3336.01,3214.00,3491.46,350.79,315.45,6.13,0000 0000 0000 0000 000000
2013-09-25 02:37:00,0.01,0.33,0.00,27.88,32.49,34.64,5.88,30.00,1003.93,2027.82,3335.99,3213.99,3491.19,350.05,314.78,6.13,0000 0000 0000 0000 000000